Location: Arcizac
(43.0933°N, 0.0112°E)
Time: 23:36:42
(UTC+00:00)

Cosmos 1908 Rocket - Pass Details

Date: 14 December 2019
Orbit: 605 x 633 km, 82.5° (Epoch: 20 January)

Event Time Altitude Azimuth Distance (km) Brightness Sun altitude
Rises 16:53:52 0° 357° (N) 2,900 6.8 -5.4°
Reaches altitude 10° 16:56:11 10° 3° (N) 1,985 5.9 -5.8°
Maximum altitude 17:00:25 46° 78° (ENE) 821 3.8 -6.4°
Drops below altitude 10° 17:04:36 10° 152° (SSE) 1,955 6.1 -7.1°
Sets 17:06:52 0° 159° (SSE) 2,851 7.0 -7.5°
